TimeMDT,TemperatureF,Dew PointF,Humidity,Sea Level PressureIn,VisibilityMPH,Wind Direction,Wind SpeedMPH,Gust SpeedMPH,PrecipitationIn,Events,Conditions,WindDirDegrees,DateUTC
12:00 AM,53,37,43,29.96,,North,5.8,,,,,0,2012-10-08 06:00:00
12:00 AM,52.9,37.0,55,29.96,-9999.0,North,5.8,-,N/A,,Unknown,360,2012-10-08 06:00:00
1:00 AM,49.6,40.1,70,29.99,-9999.0,North,8.1,-,N/A,,Unknown,350,2012-10-08 07:00:00
2:00 AM,48.9,39.0,69,30.00,-9999.0,NNW,8.1,-,N/A,,Unknown,340,2012-10-08 08:00:00
3:00 AM,46.8,40.1,78,30.01,-9999.0,North,8.1,-,N/A,,Unknown,350,2012-10-08 09:00:00
4:00 AM,44.4,41.5,90,30.01,-9999.0,NNW,5.8,-,N/A,,Unknown,330,2012-10-08 10:00:00
5:00 AM,43.5,41.9,94,30.02,-9999.0,North,3.5,-,0.04,,Unknown,350,2012-10-08 11:00:00
6:00 AM,43,42,93,30.04,,NW,4.6,,,,,320,2012-10-08 12:00:00
6:00 AM,43.2,41.7,95,30.04,-9999.0,NW,4.6,-,0.04,,Unknown,320,2012-10-08 12:00:00
7:00 AM,42.4,41.0,95,30.04,-9999.0,NNW,3.5,-,0.01,,Unknown,340,2012-10-08 13:00:00
9:00 AM,43.0,41.4,94,30.05,-9999.0,SW,1.2,-,N/A,,Unknown,220,2012-10-08 15:00:00
10:00 AM,43.5,41.4,92,30.06,-9999.0,SSE,1.2,-,0.01,,Unknown,160,2012-10-08 16:00:00
11:00 AM,42.6,39.6,89,30.06,-9999.0,North,5.8,-,0.04,,Unknown,10,2012-10-08 17:00:00
12:00 PM,41,36,74,30.09,,North,10.4,,,,,10,2012-10-08 18:00:00
12:00 PM,41.0,35.6,81,30.09,-9999.0,North,10.4,-,0.05,,Unknown,10,2012-10-08 18:00:00
1:00 PM,40.8,37.9,89,30.10,-9999.0,North,10.4,-,N/A,,Unknown,350,2012-10-08 19:00:00
2:00 PM,40.5,33.4,76,30.11,-9999.0,North,11.5,-,N/A,,Unknown,360,2012-10-08 20:00:00
3:00 PM,41.2,35.4,80,30.10,-9999.0,NNW,8.1,-,N/A,,Unknown,340,2012-10-08 21:00:00
4:00 PM,41.5,35.1,78,30.10,-9999.0,NNW,5.8,-,N/A,,Unknown,340,2012-10-08 22:00:00
5:00 PM,40.8,34.9,79,30.13,-9999.0,NNW,8.1,-,N/A,,Unknown,340,2012-10-08 23:00:00
6:00 PM,40,35,75,30.14,,West,8.1,,,,,270,2012-10-09 00:00:00
6:00 PM,39.7,34.9,83,30.14,-9999.0,West,8.1,-,N/A,,Unknown,270,2012-10-09 00:00:00
8:00 PM,38.8,34.3,84,30.14,-9999.0,WNW,3.5,-,N/A,,Unknown,300,2012-10-09 02:00:00
9:00 PM,39.9,34.2,80,30.14,-9999.0,WNW,4.6,-,N/A,,Unknown,290,2012-10-09 03:00:00
11:00 PM,34.9,31.6,88,30.16,-9999.0,SW,1.2,-,N/A,,Unknown,230,2012-10-09 05:00:00